Home > Weather > Hommersåk > Past weeks

Flag for Norway Past Weather in Hommersåk, Norway — Yesterday and Last 2 Weeks

Now
57 °F

Partly sunny.


Feels Like: 57 °F
Forecast: 56 / 58 °F
Wind: 5 mph from Southeast

Location: Stavanger / Sola

Current Time: Jun 29, 2016 at 9:25:37 AM

Latest Report: Jun 29, 2016 at 8:50 AM


Visibility: N/A

Pressure: 29.74 "Hg

Humidity: 72%

Dew Point: 48 °F

Location of HommersåkLocation

Past Weather in Hommersåk — Graph

°F

Hommersåk Temperature Yesterday

Maximum temperature yesterday: 61 °F (at 11:50 AM)
Minimum temperature yesterday: 50 °F (at 4:50 AM)
Average temperature yesterday: 57 °F

High & Low Weather Summary for the Past Weeks

 TemperatureHumidityPressure
High70 °F (Jun 23, 2:50 PM)100% (Jun 17, 1:50 AM)30.12 "Hg (Jun 17, 1:50 AM)
Low45 °F (Jun 20, 2:50 AM)43% (Jun 14, 8:50 AM)29.53 "Hg (Jun 15, 3:50 AM)
Average59 °F82%29.82 "Hg
* Reported Jun 14 7:20 AM — Jun 29 7:50 AM, Hommersåk, Weather by CustomWeather, © 2016

Note: Actual official high and low records may vary slightly from our data, if they occured in-between our weather recording intervals... More about our weather records

Advertising

Hommersåk Weather History for the Previous 24 Hours

Scroll right to see more
 ConditionsComfort  
Time TempWeatherWind HumidityBarometerVisibility
7:50 AM
Wed, Jun 29
55 °FBroken clouds.5 mph77%29.77 "HgN/A
7:20 AM55 °FBroken clouds.5 mph77%29.77 "HgN/A
6:50 AM55 °FBroken clouds.5 mph77%29.77 "HgN/A
6:20 AM55 °FPartly sunny.6 mph77%29.77 "Hg5 mi
5:50 AM54 °FPartly sunny.5 mph82%29.77 "Hg5 mi
4:50 AM54 °FPassing clouds.3 mph82%29.80 "Hg6 mi
3:50 AM54 °FPassing clouds.5 mph82%29.80 "Hg5 mi
3:20 AM54 °FPassing clouds.3 mph88%29.80 "HgN/A
2:50 AM55 °FPartly cloudy.6 mph82%29.83 "Hg4 mi
1:50 AM55 °FPassing clouds.3 mph82%29.86 "HgN/A
12:50 AM54 °FPassing clouds.2 mph82%29.86 "HgN/A
12:20 AM54 °FPassing clouds.2 mph88%29.86 "HgN/A
11:50 PM
Tue, Jun 28
55 °FPartly sunny.No wind82%29.86 "HgN/A
11:20 PM57 °FScattered clouds.1 mph77%29.86 "HgN/A
10:50 PM57 °FScattered showers. Scattered clouds.2 mph77%29.86 "HgN/A
10:20 PM59 °FPassing clouds.1 mph72%29.89 "HgN/A
9:50 PM59 °FScattered clouds.No wind68%29.86 "HgN/A
9:20 PM59 °FScattered clouds.2 mph72%29.86 "HgN/A
8:50 PM59 °FScattered clouds.6 mph72%29.89 "HgN/A
8:20 PM59 °FScattered clouds.5 mph72%29.89 "HgN/A
7:50 PM61 °FPassing clouds.6 mph68%29.89 "HgN/A
7:20 PM61 °FScattered clouds.7 mph68%29.89 "HgN/A
6:50 PM61 °FPassing clouds.7 mph68%29.89 "HgN/A
6:20 PM61 °FPassing clouds.9 mph68%29.89 "HgN/A
5:50 PM61 °FScattered showers. Passing clouds.9 mph63%29.89 "HgN/A
5:20 PM61 °FScattered clouds.9 mph68%29.92 "HgN/A
4:50 PM61 °FPassing clouds.12 mph72%29.92 "HgN/A
4:20 PM61 °FScattered clouds.12 mph72%29.92 "HgN/A
3:50 PM61 °FScattered clouds.12 mph72%29.92 "HgN/A
3:20 PM61 °FScattered clouds.10 mph72%29.92 "HgN/A
2:50 PM61 °FScattered clouds.10 mph68%29.92 "HgN/A
2:20 PM61 °FScattered clouds.12 mph68%29.92 "HgN/A
1:50 PM59 °FScattered clouds.3 mph72%29.92 "HgN/A
1:20 PM57 °FSprinkles. Scattered clouds.13 mph77%29.92 "HgN/A
12:50 PM59 °FSprinkles. Scattered clouds.9 mph68%29.92 "HgN/A
12:20 PM61 °FScattered clouds.9 mph59%29.92 "HgN/A
11:50 AM61 °FScattered clouds.8 mph63%29.92 "HgN/A
11:20 AM59 °FScattered clouds.8 mph68%29.92 "HgN/A
10:50 AM59 °FScattered clouds.7 mph68%29.92 "HgN/A
10:20 AM59 °FScattered clouds.8 mph68%29.92 "HgN/A
9:50 AM59 °FScattered clouds.7 mph68%29.89 "HgN/A
9:20 AM57 °FScattered clouds.6 mph77%29.89 "HgN/A
Weather by CustomWeather, © 2016

See weather overviewHow to use our weather pages